Austin, TX

9:44 AM CDT on April 23, 2018 (GMT -0500)
Austin

Weather History for KATT - October, 2012

Change the Weather History Date:

Sunday, October 7, 2012

  Actual Average Record
Temperature  
Mean Temperature 54 °F 74 °F  
Max Temperature 58 °F 84 °F 97 °F (1917)
Min Temperature 50 °F 63 °F 47 °F (1952)
Degree Days  
Heating Degree Days 11 0  
Month to date heating degree days 12 0  
Since 1 July heating degree days 12 2  
Cooling Degree Days 0 9  
Month to date cooling degree days 50 69  
Year to date cooling degree days 3286 2913  
Growing Degree Days 4 (Base 50)    
Moisture  
Dew Point 42 °F    
Average Humidity 66    
Maximum Humidity 77    
Minimum Humidity 54    
Precipitation  
Precipitation T in 0.11 in 3.21 in (1994)
Month to date precipitation T 0.76  
Year to date precipitation 31.71 25.84  
Snow  
Snow 0.00 in - - ()
Month to date snowfall 0.0  
Since 1 July snowfall 0.0  
Since 1 September snowfall 0.0  
Snow Depth 0.00 in    
Sea Level Pressure  
Sea Level Pressure 30.21 in    
Wind  
Wind Speed 8 mph (NNE)    
Max Wind Speed 15 mph    
Max Gust Speed 23 mph    
Visibility 10 miles    
Events      
T = Trace of Precipitation, MM = Missing Value Source: NWS Daily Summary

Daily Weather History Graph

Daily Weather History Graph

Search for Another Location

Airport or City:

Astronomy

Oct. 07, 2012 Rise Set
Actual Time 7:28 AM CDT 7:08 PM CDT
Civil Twilight 7:04 AM CDT 7:32 PM CDT
Nautical Twilight 6:36 AM CDT 8:00 PM CDT
Astronomical Twilight 6:08 AM CDT 8:28 PM CDT
Moon No Moon Rise 1:49 PM CDT (10/7)
Length of Visible Light 12h 28m
Length of Day
11h 40m
Waning Gibbous, 56% of the Moon is Illuminated
Oct 7
Waning Gibbous
Oct 8
Last Quarter
Oct 15
New
Oct 21
First Quarter
Oct 29
Full

Hourly Weather History & Observations

Time (CDT) Temp. Dew Point Humidity Pressure Visibility Wind Dir Wind Speed Gust Speed Precip Events Conditions
12:51 AM 55.0 °F 46.0 °F 72% 30.18 in 10.0 mi NNE 10.4 mph - N/A   Overcast
1:51 AM 54.0 °F 44.1 °F 69% 30.19 in 10.0 mi North 9.2 mph 19.6 mph N/A   Overcast
2:51 AM 54.0 °F 43.0 °F 66% 30.19 in 10.0 mi North 11.5 mph - N/A   Overcast
3:51 AM 53.1 °F 44.1 °F 71% 30.19 in 10.0 mi North 9.2 mph 16.1 mph N/A   Overcast
4:51 AM 52.0 °F 44.1 °F 74% 30.19 in 10.0 mi NNE 9.2 mph 17.3 mph N/A   Overcast
5:46 AM 51.8 °F 44.6 °F 76% 30.21 in 10.0 mi North 6.9 mph 16.1 mph N/A   Overcast
5:51 AM 52.0 °F 44.1 °F 74% 30.21 in 10.0 mi North 9.2 mph 20.7 mph N/A   Overcast
6:35 AM 52.0 °F 43.0 °F 71% 30.22 in 10.0 mi NNE 6.9 mph 18.4 mph N/A   Overcast
6:51 AM 51.1 °F 43.0 °F 74% 30.23 in 10.0 mi NNE 9.2 mph 17.3 mph N/A   Overcast
7:51 AM 51.1 °F 43.0 °F 74% 30.24 in 10.0 mi North 10.4 mph - N/A   Overcast
8:51 AM 50.0 °F 41.0 °F 71% 30.26 in 10.0 mi Variable 6.9 mph 18.4 mph N/A   Overcast
9:51 AM 51.1 °F 39.9 °F 66% 30.27 in 10.0 mi NNE 8.1 mph - N/A   Overcast
10:51 AM 52.0 °F 39.9 °F 63% 30.26 in 10.0 mi Variable 6.9 mph - N/A   Overcast
11:51 AM 54.0 °F 41.0 °F 62% 30.26 in 10.0 mi NNE 6.9 mph - N/A   Overcast
12:51 PM 54.0 °F 41.0 °F 62% 30.23 in 10.0 mi NNE 9.2 mph - N/A   Overcast
1:51 PM 55.9 °F 41.0 °F 57% 30.21 in 10.0 mi Variable 6.9 mph - N/A   Overcast
2:19 PM 57.0 °F 41.0 °F 55% 30.19 in 10.0 mi NNE 9.2 mph - N/A   Overcast
2:51 PM 57.0 °F 42.1 °F 57% 30.18 in 10.0 mi Variable 6.9 mph - N/A   Overcast
3:51 PM 57.0 °F 42.1 °F 57% 30.17 in 10.0 mi NNE 9.2 mph - N/A   Overcast
4:51 PM 57.0 °F 42.1 °F 57% 30.17 in 10.0 mi NNE 5.8 mph - N/A   Overcast
5:51 PM 57.0 °F 42.1 °F 57% 30.16 in 10.0 mi North 8.1 mph - N/A   Overcast
6:51 PM 55.9 °F 41.0 °F 57% 30.18 in 10.0 mi North 8.1 mph - N/A   Overcast
7:51 PM 55.0 °F 41.0 °F 59% 30.19 in 10.0 mi Variable 6.9 mph - N/A   Overcast
8:51 PM 54.0 °F 39.9 °F 59% 30.22 in 10.0 mi NNE 6.9 mph - N/A   Overcast
9:51 PM 53.1 °F 39.0 °F 59% 30.24 in 10.0 mi North 9.2 mph - N/A   Overcast
10:51 PM 52.0 °F 39.0 °F 61% 30.24 in 10.0 mi NNE 6.9 mph - N/A   Overcast
11:51 PM 53.1 °F 37.9 °F 57% 30.24 in 10.0 mi NNE 5.8 mph - N/A   Overcast